Regional Weather Roundup
Issued by NWS

Home | Current Version | Previous Version | Text Only | Print | Product List | Glossary On
Versions: 1 2 3 4 5 6 7 8 9 10 11 12 13 14 15 16 17 18 19 20 21 22 23 24 25 26 27 28 29 30 31 32 33 34 35 36 37 38 39 40 41 42 43 44 45 46 47 48 49 50
000
ASUS43 KMPX 231510
RWRMN
WEATHER ROUNDUP FOR MINNESOTA
NATIONAL WEATHER SERVICE TWIN CITIES/CHANHASSEN MN
1000 AM CDT TUE SEP 23 2014


NOTE: "FAIR" INDICATES FEW OR NO CLOUDS BELOW 12,000 FEET WITH NO
SIGNIFICANT WEATHER AND/OR OBSTRUCTIONS TO VISIBILITY. N/A MEANS
CURRENT SKY AND/OR WEATHER CONDITIONS ARE NOT AVAILABLE.

MNZ060>063-068>070-231600-
   Twin Cities Metro

CITY           SKY/WX    TMP DP  RH WIND       PRES   REMARKS
TWIN CITIES    MOSUNNY   62  51  67 SE6       30.23S
ST PAUL        SUNNY     60  52  74 SE8       30.24S
CRYSTAL        SUNNY     65  52  62 S7        30.21S
BLAINE         SUNNY     64  54  68 S7        30.23R
LAKEVILLE      SUNNY     61  54  77 S6        30.24R
EDEN PRAIRIE   SUNNY     63  54  72 S6        30.22R
SOUTH ST PAUL  SUNNY     60  52  73 SE5       30.24R
LAKE ELMO      FAIR      61  54  77 S6        30.25S
$$
MNZ001>005-007-008-013>017-022>024-027-028-231600-
   Northwest Minnesota

CITY           SKY/WX    TMP DP  RH WIND       PRES   REMARKS
BEMIDJI        SUNNY     60  50  69 S9        30.12S
HALLOCK        SUNNY     64  52  63 S14G21    30.01S
ROSEAU         SUNNY     63  54  72 S9        30.05S
WARROAD        SUNNY     63  55  77 S8        30.07S
THIEF RVR FALL SUNNY     63  52  67 S12       30.06S
CROOKSTON      SUNNY     63  54  72 S13       30.05S
FOSSTON        SUNNY     64  52  63 SE7       30.08F
DETROIT LAKES  SUNNY     61  52  72 SE9       30.11S
MOORHEAD       SUNNY     63  54  72 S14       30.07S
PARK RAPIDS    SUNNY     59  50  72 S12       30.13S
MAHNOMEN       FAIR      63  51  65 S9        30.08S
$$
MNZ006-009>011-018-025>026-231600-
   North Central Minnesota

CITY           SKY/WX    TMP DP  RH WIND       PRES   REMARKS
BAUDETTE       SUNNY     60  51  72 S7        30.10R
FLAG ISLAND    SUNNY     57  54  88 S13       30.06S
INTL FALLS     SUNNY     61  52  72 VRB6      30.14S
WASKISH        SUNNY     63  54  72 SE3       30.11S
BIG FORK       SUNNY     63  52  67 S7        30.16S
LONGVILLE      SUNNY     57  55  94 SE7       30.15S
GRAND RAPIDS   SUNNY     57  52  82 S9        30.18S
CRANE LAKE     SUNNY     59  52  77 S5        30.18S
ORR            SUNNY     61  50  67 S6        30.15S
COOK           SUNNY     63  52  67 S3        30.18S
WALKER         FAIR      60  50  68 S7        30.13S
$$
MNZ012-019>021-037-231600-
   Northeast Minnesota

CITY           SKY/WX    TMP DP  RH WIND       PRES   REMARKS
DULUTH         SUNNY     64  51  62 SW6       30.21S
ELY            SUNNY     61  52  72 S5        30.20S
HIBBING        SUNNY     57  50  77 CALM      30.20S
EVELETH        SUNNY     52  52 100 CALM      30.21S
DULUTH HARBOR  SUNNY     61  54  77 SW3       30.22S
TWO HARBORS    SUNNY     63  52  67 CALM      30.19S
SILVER BAY     SUNNY     63  55  77 CALM      30.19S
GRAND MARAIS     N/A     58  51  78 SW5       30.19S
G MARAIS ARPRT SUNNY     66  46  48 CALM      30.23R
$$
MNZ029>031-032-039>041-046>048-054>057-064-231600-
   West Central Minnesota

CITY           SKY/WX    TMP DP  RH WIND       PRES   REMARKS
FERGUS FALLS   SUNNY     63  48  59 SE13      30.10S
WHEATON        PTSUNNY   59  52  77 SE12      30.11R
MORRIS         PTSUNNY   59  52  77 SE13      30.11S
ALEXANDRIA     SUNNY     61  52  72 S10       30.15S
ELBOW LAKE     FAIR      59  51  75 SE13      30.11S
WADENA         SUNNY     61  52  72 S10       30.13S
GLENWOOD       MOSUNNY   61  52  72 SE10      30.16R
APPLETON       PTSUNNY   63  52  67 S9        30.13R
BENSON         MOSUNNY   61  52  72 S8        30.14R
ORTONVILLE     PTSUNNY   59  52  77 SE8       30.11R
MADISON        PTSUNNY   63  54  72 S10       30.12S
WILLMAR        FAIR      63  52  67 S5        30.18R
$$
MNZ033>034-036-042>043-049>051-058-059-231600-
   Central Minnesota

CITY           SKY/WX    TMP DP  RH WIND       PRES   REMARKS
ST CLOUD       SUNNY     62  52  69 S9        30.19S
SAUK CENTRE    FAIR      60  51  70 S12       30.17R
PAYNESVILLE    SUNNY     57  51  80 E8        30.18S
AITKIN         SUNNY     64  55  72 S7        30.17R
PINE RIVER     SUNNY     59  54  82 S6        30.18S
BRAINERD       SUNNY     61  51  70 S8        30.18R
STAPLES        SUNNY     59  50  72 S9        30.15S
LONG PRAIRIE   FAIR      59  50  72 SE9       30.17R
LITTLE FALLS   SUNNY     59  50  72 SE7       30.18R
LITCHFIELD     SUNNY     63  55  77 S3        30.19S
BUFFALO        SUNNY     61  51  70 SE6       30.22R
MAPLE LAKE     SUNNY     61  54  78 S3        30.22R
$$
MNZ037-044-045-052-053-231600-
   East Central Minnesota

CITY           SKY/WX    TMP DP  RH WIND       PRES   REMARKS
PRINCETON      SUNNY     63  54  72 SE6       30.20S
MORA           SUNNY     59  52  77 S3        30.23R
CAMBRIDGE      SUNNY     63  52  67 S7        30.20S
RUSH CITY      SUNNY     60  53  79 S3        30.23R
MOOSE LAKE     SUNNY     54  54 100 SW6       30.20S
HINCKLEY       FAIR      59  54  82 S3        30.23S
CLOQUET        SUNNY     61  52  72 CALM      30.22R
MCGREGOR       SUNNY     57  52  82 S5        30.19F
$$
MNZ071>073-080-081-089-090-097-098-231600-
   Southwest Minnesota

CITY           SKY/WX    TMP DP  RH WIND       PRES   REMARKS
MONTEVIDEO     PTSUNNY   61  52  72 S9        30.15S
GRANITE FALLS  PTSUNNY   61  53  76 SE9       30.17S
CANBY          CLOUDY    61  53  73 S7G16     30.14S
MARSHALL       CLOUDY    63  52  67 S14       30.15R
REDWOOD FALLS  PTSUNNY   62  52  69 S12       30.18R
OLIVIA         PTSUNNY   61  52  72 S10       30.17R
PIPESTONE      LGT RAIN  57  54  88 S8        30.16S
WINDOM         PTSUNNY   61  54  77 S7        30.19S
WORTHINGTON    CLOUDY    55  52  88 S8        30.20R
JACKSON        CLOUDY    61  52  72 S8        30.21S
TRACY          CLOUDY    60  52  75 S7        30.17R
SLAYTON        CLOUDY    59  53  80 CALM      30.18S
$$
MNZ065>067-074>077-082>085-091>093-231600-
   South Central Minnesota

CITY           SKY/WX    TMP DP  RH WIND       PRES   REMARKS
MANKATO        MOSUNNY   63  50  63 S9        30.22S
NEW ULM        PTSUNNY   61  54  77 S9        30.20S
ST JAMES       PTSUNNY   61  54  77 S10       30.22R
FAIRMONT         N/A     57  50  77 S8        30.22S
GLENCOE        MOSUNNY   63  51  66 S6        30.20S
FARIBAULT      SUNNY     66  50  55 S6        30.25R
OWATONNA       SUNNY     63  52  67 S7        30.25S
WASECA         MOSUNNY   61  48  63 S8        30.26S
ALBERT LEA     FAIR      61  54  77 S6        30.26R
$$
MNZ078>079-086>088-094>096-231600-
   Southeast Minnesota

CITY           SKY/WX    TMP DP  RH WIND       PRES   REMARKS
ROCHESTER      SUNNY     61  53  75 S8        30.29R
RED WING       SUNNY     63  54  72 SE6       30.25S
STANTON        SUNNY     65  53  66 S7        30.23S
DODGE CENTER   SUNNY     63  54  72 S8        30.27R
WINONA         CLOUDY    54  54 100 SE3       30.30R FOG
AUSTIN         FAIR      61  54  77 S7        30.27S
PRESTON        SUNNY     60  55  86 S6        30.30R
$$
ABBREVIATIONS USED IN REMARKS
   TC - TEMPERATURES IN CELSIUS
  WCI - WIND CHILL INDEX
   HX - HEAT INDEX
  VSB - VISIBILITY
$$



USA.gov is the U.S. government's official web portal to all federal, state and local government web resources and services.